User: anonymous   Login
Location: Meriden
(44.0740°N, 93.3870°W)
Time: 08:29:53
(UTC-06:00)
Language:

AO-27 - Orbit

View from above orbital plane
View from above orbital plane
View from above satellite
View from above satellite

Ground track
Ground track

The orbit data is extracted from the following two-line orbital elements,

1 22825U 93061C   16339.11542554  .00000013  00000-0  22703-4 0  9999
2 22825  98.7843 296.6100 0008395 174.1342 185.9940 14.29978596209525
Epoch (UTC): 04 December 2016 02:46:12
Eccentricity: 0.0008395
inclination: 98.7843°
perigee height: 786 km
apogee height: 798 km
right ascension of ascending node: 296.6100°
argument of perigee: 174.1342°
revolutions per day: 14.29978596
mean anomaly at epoch: 185.9940°
orbit number at epoch: 20952

The dashed part of the orbit path shows where the satellite is in the earth's shadow,  

DLR